Temp
9 9 9 9 9 9 8 9 9 9 10 11 11 11 12 14 16 17 19 20 21 21 22 22 23 23 24 28 31 30 31 28 28 28 30 31 32 32 31 31 31 32 32 32 31 31 31
9 9 9 9 8 8 9 9 9 9 10 11 11 12 13 14 16 17 18 21 21 22 22 23 23 23 22 30 30 29 28 26 27 29 29 31 32 32 31 30 31 32 32 31 31 31 31
9 9 9 9 8 8 9 9 9 10 10 11 11 13 14 15 16 17 19 21 22 23 23 24 24 22 24 30 29 28 26 25 28 28 31 30 32 33 31 31 31 32 31 31 31 30 30
9 9 9 8 9 9 8 8 9 10 10 10 11 12 14 15 17 18 21 22 23 24 24 24 23 21 27 29 29 29 28 26 26 28 29 30 31 32 32 31 31 31 31 30 30 30 29
9 9 8 8 9 9 9 8 9 10 10 10 11 13 15 16 17 19 22 22 22 21 22 22 21 22 29 28 29 31 30 31 27 27 29 31 31 31 31 32 31 30 30 30 30 31 30
9 9 9 9 9 9 9 9 10 10 10 11 12 14 16 17 18 20 22 21 20 20 20 20 20 24 28 30 29 29 29 30 31 30 32 32 32 32 30 33 31 31 30 30 30 31 31
9 9 9 9 9 9 9 9 10 10 10 11 12 14 16 17 18 19 21 21 23 24 21 26 26 25 26 27 28 30 29 31 32 32 33 32 33 33 34 33 32 32 32 31 31 31 31
9 9 9 9 9 9 9 9 10 10 10 11 13 13 16 18 19 19 19 20 17 17 22 22 22 23 24 25 28 31 30 34 33 33 31 32 33 35 33 33 32 32 32 30 30 31 31
10 9 9 9 9 9 9 9 10 10 10 11 13 13 15 18 18 18 16 16 16 17 21 24 24 25 27 27 30 32 32 33 34 33 33 34 34 32 33 32 32 31 32 31 31 30 29
10 9 9 9 9 9 9 9 9 10 10 11 13 12 14 17 17 15 17 17 17 17 25 27 26 28 27 28 31 31 32 35 33 34 33 34 33 33 33 33 34 32 32 32 30 30 30
10 10 9 9 9 9 9 9 9 9 10 10 12 12 13 14 14 15 17 18 17 18 27 27 27 27 26 31 32 32 31 34 34 33 34 35 33 32 32 33 33 32 32 32 31 29 30
10 10 9 9 9 9 9 9 9 9 10 11 12 12 12 12 12 17 18 18 18 25 26 28 28 28 28 29 31 31 33 33 33 33 33 35 33 34 32 31 33 31 31 31 31 31 31
10 10 9 9 9 9 9 9 9 9 10 11 13 15 12 11 17 17 18 19 25 25 26 27 27 27 29 30 31 32 32 33 34 33 33 34 34 32 32 31 32 32 34 31 31 31 32
10 10 9 9 9 9 9 9 9 9 10 12 15 16 15 14 15 16 17 24 23 25 25 25 25 26 28 30 31 31 32 33 32 35 33 33 33 33 33 34 33 32 33 33 31 30 31
10 9 9 9 9 9 9 9 9 9 11 12 15 15 14 13 14 15 22 24 25 24 25 25 26 28 28 28 30 31 32 34 34 34 34 33 34 32 33 32 34 31 32 30 30 27 31
10 9 9 9 9 9 9 9 9 9 11 13 11 11 13 13 14 16 23 23 23 22 24 25 26 25 28 28 29 30 31 32 33 33 36 34 34 33 31 33 31 33 32 33 31 31 32
9 9 9 9 9 9 8 9 9 9 11 13 11 18 13 14 14 20 23 22 22 22 23 25 25 25 25 27 27 30 31 30 33 33 33 34 35 32 32 33 33 32 33 30 32 32 33
9 9 9 9 9 9 8 8 9 9 10 12 10 20 14 14 19 15 20 20 20 23 23 25 25 25 26 26 27 28 31 31 30 33 34 34 35 33 33 33 33 34 35 35 34 32 30
9 8 8 8 8 8 8 8 8 9 9 7 10 10 14 14 20 19 18 20 21 23 23 24 25 24 24 25 26 26 27 28 29 32 34 33 34 33 33 33 32 34 33 34 33 33 33
9 8 8 8 8 8 8 8 8 8 9 8 11 17 16 16 14 17 19 21 22 22 23 24 25 24 25 25 24 25 27 28 27 30 26 31 35 34 34 35 35 34 32 32 35 35 34
9 8 8 8 8 8 8 8 8 8 9 8 10 12 10 16 17 17 17 18 21 22 22 23 23 24 25 25 24 26 26 28 29 26 29 34 34 33 35 35 35 36 35 32 34 36 36
8 8 8 8 8 8 8 8 8 8 9 9 10 10 10 12 13 15 15 19 19 21 22 22 22 24 23 24 25 25 25 27 27 28 29 30 33 32 34 33 34 35 36 35 34 33 34
8 7 7 7 7 8 8 8 8 8 8 8 7 8 9 11 13 14 17 19 20 21 22 22 23 23 23 24 25 25 25 25 26 25 27 28 31 31 33 34 34 33 35 35 35 34 36
8 7 7 7 8 8 8 8 8 8 8 7 8 8 9 11 13 15 16 16 17 18 20 21 21 22 23 23 24 25 24 25 26 26 27 27 27 29 34 32 32 36 38 37 36 36 35
8 7 7 7 8 8 8 8 9 8 8 7 7 7 8 9 12 13 14 15 16 17 18 19 21 22 23 23 23 24 25 25 27 26 26 28 28 30 32 32 33 34 33 35 35 36 34
7 7 7 7 8 8 8 9 8 8 8 8 7 7 7 8 11 12 12 14 14 15 17 19 20 20 22 22 23 23 26 28 29 25 26 27 28 29 29 32 32 36 37 36 39 35 35
7 7 7 7 7 8 8 8 8 8 8 8 7 8 7 7 9 10 10 12 15 15 15 17 18 19 21 22 23 24 26 28 28 29 24 24 25 27 29 33 35 37 38 35 34 37 34
7 7 7 7 7 7 7 8 8 8 8 8 7 8 7 8 9 10 11 10 13 14 14 15 17 18 19 20 23 25 25 28 28 29 27 27 28 27 29 31 33 36 34 36 37 33 34
7 7 7 7 7 7 8 8 8 8 8 7 7 8 8 7 8 8 8 9 10 11 13 15 15 16 18 20 20 20 23 25 28 30 27 31 33 32 32 33 33 33 37 37 37 34 33
Height
835 832 830 828 825 822 820 817 814 811 807 803 799 795 792 788 785 781 777 773 769 766 765 763 760 758 754 753 747 740 739 742 746 749 753 754 756 758 768 767 766 767 765 765 768 772 776
835 833 830 828 826 823 820 817 814 810 806 802 797 793 789 786 782 778 774 770 766 763 761 761 759 758 758 759 742 741 740 744 747 751 754 755 755 755 763 768 770 765 767 772 774 776 780
835 833 831 828 826 823 820 817 814 810 807 802 797 792 787 783 779 774 771 766 762 758 757 757 757 758 758 745 741 741 743 746 748 752 755 756 756 756 760 768 765 766 780 778 782 781 787
836 834 831 828 826 823 820 817 813 810 806 802 796 791 786 781 776 771 766 762 757 754 753 753 755 758 752 740 741 742 744 748 750 752 755 755 754 758 762 766 770 778 781 799 789 785 788
836 833 831 828 826 823 820 817 813 810 805 800 795 789 784 779 774 768 763 758 754 753 753 754 757 757 748 740 741 741 742 746 750 754 755 756 755 762 765 775 784 785 801 799 800 784 788
836 833 830 828 825 822 819 816 813 809 804 799 793 788 782 776 771 765 761 758 756 755 755 756 757 760 743 741 739 740 739 745 748 752 756 757 760 770 776 776 803 797 799 797 798 790 787
836 833 830 828 825 822 819 815 812 808 803 797 792 786 780 775 769 764 760 759 760 758 756 750 750 751 744 741 738 737 739 744 744 749 762 760 770 777 769 767 773 777 784 793 790 785 792
835 833 830 828 825 822 819 815 811 807 802 796 791 785 779 773 767 764 762 764 772 774 763 749 749 750 745 745 745 736 738 744 747 761 761 768 775 757 759 765 774 778 787 797 792 788 791
835 833 830 828 825 822 819 814 810 805 800 795 790 784 778 772 767 766 765 768 769 770 768 749 744 743 740 742 741 735 734 739 748 761 763 769 761 755 763 772 777 782 783 793 796 794 795
835 833 830 828 825 822 818 814 809 804 799 793 788 783 777 771 771 769 769 768 767 767 767 750 745 737 738 737 742 729 731 734 749 758 762 763 755 761 766 772 767 786 774 781 791 799 814
835 833 830 828 824 821 817 813 808 803 797 792 786 781 776 773 772 770 770 767 765 768 779 747 741 732 735 737 732 732 729 732 746 754 758 762 763 768 773 769 766 778 769 779 788 803 805
835 832 829 827 824 820 816 811 806 801 795 789 784 779 774 772 770 767 767 766 767 773 780 748 737 739 742 737 733 731 730 729 732 749 753 753 747 752 762 764 761 769 778 788 792 798 815
834 831 828 825 822 819 814 810 805 799 792 785 778 774 770 769 767 766 766 766 774 780 750 753 749 742 741 742 738 734 739 744 752 770 771 760 758 756 754 774 772 774 777 810 819 818 817
833 831 827 824 821 817 812 807 802 796 789 781 774 768 765 765 765 765 765 764 785 764 760 749 751 749 747 739 738 739 742 747 747 744 762 775 783 760 752 758 771 777 776 792 825 826 813
832 829 827 824 820 816 812 806 800 794 786 777 769 766 765 765 763 764 763 771 761 761 754 754 749 750 747 744 740 737 738 737 736 736 758 771 772 752 751 754 755 782 788 783 804 819 810
831 828 826 823 820 815 811 806 801 793 785 775 769 767 767 763 762 765 762 765 760 756 751 753 755 756 750 748 746 741 741 731 734 730 722 749 771 754 760 751 760 761 766 788 793 819 818
831 828 825 822 819 815 810 806 800 793 783 775 770 765 769 766 766 763 764 761 759 752 752 754 757 756 755 751 747 743 736 735 725 732 731 740 748 767 757 759 762 773 774 784 782 791 799
830 828 825 822 819 815 811 806 800 793 784 776 776 766 772 770 769 778 765 762 757 751 749 749 750 751 752 751 748 748 738 733 727 719 736 733 741 765 761 750 746 748 756 758 782 798 797
830 828 825 821 818 815 812 807 803 797 791 787 785 783 772 773 768 768 766 760 755 753 750 750 750 749 750 752 758 752 745 734 729 725 727 731 745 768 769 758 754 754 757 755 764 770 784
830 827 824 821 818 814 811 808 804 800 794 790 787 774 772 772 777 772 767 758 755 748 748 746 746 748 751 754 753 756 749 738 734 729 731 725 732 747 761 749 743 759 758 758 752 770 775
828 826 823 820 817 815 812 810 806 802 797 794 792 788 792 775 770 771 770 765 756 750 746 745 750 749 750 757 756 753 750 741 731 734 729 724 741 744 735 738 739 741 748 758 757 745 762
826 823 821 818 816 814 812 809 807 804 800 798 795 796 794 787 781 775 770 760 758 750 746 746 750 745 750 754 750 754 750 744 743 735 736 734 740 741 741 742 740 745 738 743 750 755 753
824 821 819 816 814 812 810 809 807 805 803 802 802 801 798 785 778 774 763 756 750 749 743 740 742 745 748 748 742 741 744 744 745 752 749 745 743 746 750 740 746 760 739 739 740 738 737
822 819 817 815 812 810 809 807 806 805 805 805 803 803 798 783 778 768 762 763 757 754 749 741 743 745 742 740 739 737 740 740 740 742 742 749 752 748 744 749 775 724 705 714 726 726 729
820 818 815 813 810 808 806 805 803 803 802 803 802 803 801 789 778 773 767 763 757 754 753 747 740 738 739 740 747 746 741 742 729 732 741 739 749 750 748 749 738 726 720 721 730 727 720
818 815 813 810 808 805 803 801 800 800 799 798 799 800 799 795 777 776 771 765 763 758 750 741 739 740 738 743 746 750 736 719 726 738 730 737 740 747 751 747 755 717 695 692 695 735 706
815 812 810 807 805 802 800 798 797 796 795 795 794 795 795 791 782 782 778 767 757 754 753 747 744 742 738 741 742 738 727 709 719 717 744 751 754 751 745 733 714 692 686 693 739 721 698
811 809 806 804 802 799 797 795 793 792 791 791 789 789 790 782 777 778 775 772 764 757 753 752 747 743 741 741 732 725 721 704 705 697 713 721 733 742 739 737 734 676 694 707 691 688 687
808 806 804 802 799 796 794 792 790 788 787 787 787 784 783 782 776 772 770 768 764 763 763 754 750 747 741 737 735 732 720 707 695 701 694 701 682 702 705 703 676 673 670 666 667 680 686
Wind_Speed
16 17 16 18 18 17 17 18 20 21 22 24 25 25 26 25 24 24 24 24 23 24 21 19 18 16 6 2 5 8 5 18 25 15 10 4 1 1 3 4 3 5 5 9 12 12 13
16 17 17 17 19 17 19 19 20 21 23 24 26 27 27 27 26 25 25 24 23 23 21 18 17 8 2 4 5 6 6 22 13 11 8 3 2 3 5 4 5 4 13 15 12 14 11
16 18 18 17 18 19 19 20 20 22 23 24 26 27 27 28 27 27 26 23 23 22 21 17 10 1 1 9 4 4 11 11 14 7 5 3 3 4 1 4 4 12 15 12 9 8 5
16 16 17 18 20 20 20 21 22 23 24 26 27 28 28 29 29 28 25 24 23 19 13 5 5 3 6 5 9 1 5 6 9 7 3 5 6 3 2 5 3 5 5 4 6 6 6
17 16 17 18 18 21 21 20 22 24 26 27 29 29 29 30 28 28 24 17 8 4 8 7 3 1 5 1 4 7 10 3 10 5 2 3 2 4 2 6 3 4 5 5 7 2 6
18 18 18 18 19 20 21 22 23 25 27 29 30 29 29 31 30 27 15 3 6 7 6 3 2 2 3 2 3 1 6 6 4 8 3 3 2 3 3 7 6 8 5 4 6 8 8
17 18 19 19 20 21 21 22 24 26 27 29 30 30 31 29 31 17 12 2 2 2 1 4 1 3 3 9 2 5 6 8 5 4 3 2 4 6 9 10 2 10 9 9 5 7 9
17 17 18 19 19 21 23 24 25 26 28 29 30 31 32 31 23 12 7 5 5 2 7 3 10 8 9 4 4 3 14 8 5 7 6 4 7 7 4 7 5 10 11 5 5 6 8
16 17 19 19 20 22 24 26 27 27 29 30 30 32 32 30 11 10 6 11 8 1 3 4 5 4 4 9 5 8 14 6 10 8 10 5 0 2 9 8 11 7 13 11 7 8 3
16 18 20 20 20 22 25 26 27 28 30 32 30 33 32 29 3 12 1 2 18 9 2 2 4 3 6 5 5 5 11 6 4 13 9 6 1 6 7 8 11 7 9 11 15 10 4
17 19 20 20 21 23 24 27 28 29 31 33 32 35 29 21 10 3 1 12 2 3 2 2 3 1 2 8 6 10 3 3 10 8 6 6 6 7 4 3 11 1 11 13 14 5 4
17 19 20 19 20 22 25 27 29 31 33 34 35 33 28 8 9 3 5 10 3 2 5 2 2 5 6 5 3 5 7 2 3 6 3 3 1 3 3 6 10 17 18 9 5 3 3
16 18 20 19 20 23 25 27 29 32 34 36 37 29 20 10 2 5 9 2 2 4 2 2 2 1 5 7 5 8 14 13 12 12 10 3 4 4 11 12 12 2 12 4 3 4 0
16 17 18 18 21 24 26 27 30 32 35 40 34 25 10 8 7 4 2 3 5 1 4 2 2 2 8 7 6 7 16 18 8 14 8 10 10 10 9 4 9 12 5 2 4 4 3
15 16 15 17 21 23 24 27 30 33 37 38 32 11 3 7 7 7 3 6 4 4 1 4 2 4 7 2 5 7 15 22 18 12 14 10 9 4 4 5 9 6 5 2 6 2 3
15 15 14 18 21 22 23 25 28 32 37 31 18 7 7 8 5 3 3 6 3 2 1 1 2 1 7 4 5 7 12 11 13 10 12 7 9 3 6 6 8 3 12 4 1 6 3
16 14 15 18 20 21 23 25 28 32 37 26 5 2 13 7 2 0 5 6 5 5 1 2 0 2 1 2 3 5 12 3 10 12 4 10 6 5 8 9 11 5 5 5 1 3 3
15 15 17 18 19 20 23 24 27 31 36 19 5 1 7 9 1 1 3 4 1 3 3 3 2 3 2 2 2 3 8 3 2 15 15 7 3 4 4 2 4 4 7 10 4 4 2
16 17 19 18 18 19 21 23 25 27 29 9 3 3 5 2 2 3 3 3 3 4 5 5 4 4 0 1 2 1 2 3 8 9 16 9 7 6 6 3 3 6 5 5 4 3 5
17 19 19 18 19 20 21 22 23 25 27 9 2 2 1 1 1 3 3 4 6 5 4 3 3 2 1 1 0 3 2 3 8 2 7 6 11 10 11 9 6 5 6 9 12 6 6
17 17 19 18 18 19 19 20 21 22 23 8 3 2 3 2 2 3 5 5 7 8 5 8 4 7 5 4 2 3 2 4 1 5 2 6 15 10 14 6 6 5 7 14 15 11 12
18 18 18 17 17 18 17 17 17 19 19 4 3 3 3 4 6 6 5 7 10 6 5 6 4 7 6 5 3 2 4 3 3 7 3 3 8 9 19 8 10 13 9 12 11 5 2
16 16 16 15 15 15 15 15 15 14 13 4 3 2 1 3 3 4 5 9 10 12 8 10 7 7 7 9 10 10 7 12 11 6 3 2 4 7 15 8 10 11 15 15 13 10 8
17 17 16 15 15 14 14 14 14 12 9 3 2 2 2 5 6 8 7 7 8 8 8 2 3 10 2 1 7 8 7 11 13 12 10 2 1 2 10 9 12 13 11 15 19 16 13
16 16 16 16 15 15 16 14 14 11 9 8 4 2 2 4 7 13 16 11 9 6 7 10 11 8 3 3 3 5 5 4 11 14 15 15 4 3 7 12 2 6 5 10 11 15 18
16 17 17 17 17 16 15 14 14 10 9 9 10 9 3 3 6 8 10 7 5 3 4 6 1 2 8 6 5 5 9 10 9 7 9 14 12 5 4 13 15 9 13 9 11 12 17
17 17 17 17 17 16 17 17 15 12 9 10 8 10 5 4 8 12 7 5 5 1 3 3 3 3 6 7 9 8 9 3 9 15 9 8 7 15 7 10 10 10 10 12 11 7 20
16 16 15 15 15 15 15 15 14 14 11 11 8 8 12 3 9 13 13 12 10 4 2 4 4 4 4 8 8 7 7 9 4 8 13 11 12 7 7 8 12 12 11 13 9 2 19
16 16 14 15 15 15 15 15 15 13 10 9 7 12 15 6 5 15 24 27 24 25 8 4 4 3 2 3 1 3 5 4 7 7 5 11 11 10 13 8 2 11 12 16 10 7 14
Wind_Direction
9 12 11 12 8 6 3 359 355 353 353 353 351 350 348 347 345 338 331 326 320 318 320 321 325 333 346 283 255 320 330 164 160 159 161 131 7 39 58 82 8 85 110 105 131 131 132
8 13 10 8 7 3 1 358 355 354 354 352 349 347 347 347 345 338 332 322 317 314 313 313 316 322 337 256 317 319 163 158 162 138 137 137 24 96 91 52 61 66 103 107 124 126 132
17 11 7 8 10 8 4 3 1 359 357 353 349 349 347 346 344 336 330 322 314 307 304 302 295 183 222 247 18 94 160 162 172 162 125 191 305 3 98 105 69 130 95 94 111 124 113
13 10 2 7 7 6 4 3 2 0 358 357 353 349 347 344 341 336 328 324 307 302 305 281 158 151 250 275 204 278 162 136 168 167 140 358 244 108 17 114 54 94 96 125 161 133 151
3 3 2 1 2 357 0 358 358 359 358 357 355 351 347 344 342 335 330 326 329 47 97 111 104 188 259 330 261 269 226 143 152 159 217 297 71 83 138 131 127 40 142 145 168 209 155
357 357 357 358 357 355 357 358 358 357 357 355 354 350 346 344 343 333 341 48 58 81 86 83 80 256 227 191 291 273 196 158 139 152 188 147 100 126 138 174 188 191 161 169 163 185 185
351 352 352 352 353 357 359 359 358 357 355 354 353 350 345 345 340 341 359 290 279 183 61 235 148 291 306 322 287 209 152 156 129 128 161 145 206 209 198 211 276 212 173 160 177 165 184
354 355 357 359 358 356 355 353 351 352 353 351 352 350 345 345 341 2 24 70 76 338 306 260 254 272 274 284 286 179 155 161 163 147 135 156 235 232 226 201 180 184 165 139 109 157 200
355 358 357 355 354 353 355 354 351 350 350 348 351 349 343 346 347 8 56 121 6 182 257 289 223 220 215 173 227 196 176 156 167 156 181 206 152 176 197 172 159 180 195 167 153 145 68
358 357 355 354 353 352 352 352 352 349 347 346 348 346 342 346 35 348 76 170 329 171 300 224 218 243 162 177 229 211 192 173 148 198 171 241 148 212 212 204 191 182 195 175 148 161 163
353 350 347 349 349 351 351 350 349 347 344 343 344 342 338 341 301 282 160 327 11 169 265 113 177 23 138 194 131 206 196 151 190 149 185 204 166 163 193 180 189 164 158 145 147 119 153
347 346 345 348 350 351 350 349 349 345 342 342 339 336 331 328 298 257 313 337 161 240 240 98 141 167 160 205 180 128 178 89 104 144 186 207 170 147 87 49 167 132 115 102 100 142 205
346 342 344 349 351 351 350 350 349 345 342 341 335 331 313 282 257 296 317 186 208 227 7 84 69 119 185 187 182 173 177 182 186 192 198 185 165 94 137 88 134 176 156 139 174 205 195
344 340 347 353 352 351 350 350 348 345 344 341 335 331 318 266 262 314 291 180 226 301 261 5 0 263 197 168 209 160 176 189 202 196 185 203 210 171 172 178 181 178 209 206 188 191 152
346 346 352 354 351 352 352 352 350 346 345 343 337 343 22 341 319 197 209 204 224 208 310 328 280 192 189 182 206 181 197 194 190 191 202 189 221 117 171 140 159 157 201 80 109 79 211
346 349 353 352 351 352 353 354 351 348 348 346 338 345 358 339 140 162 195 224 230 229 320 323 243 341 199 191 195 203 178 183 184 195 208 183 219 118 123 126 56 218 142 171 102 168 173
347 350 350 349 350 354 356 356 355 352 351 349 359 21 356 97 21 241 208 224 236 231 238 343 301 308 278 197 224 197 186 149 192 182 176 156 224 128 157 208 174 149 171 69 109 287 154
355 354 346 345 350 355 356 357 358 357 355 360 350 354 360 345 188 333 211 205 256 207 177 225 243 263 269 288 216 206 193 253 223 177 200 184 147 165 166 86 227 190 171 191 228 187 90
353 344 338 343 349 352 356 357 359 0 1 346 14 292 8 17 238 218 264 250 256 191 203 195 230 228 102 307 263 228 262 21 2 194 185 178 208 185 153 162 140 202 182 173 132 132 200
341 339 341 345 347 350 351 354 355 357 359 5 343 333 17 81 76 305 278 247 222 213 228 208 243 155 201 266 52 351 331 322 338 345 28 192 207 210 207 211 148 181 194 198 209 215 185
341 341 339 341 345 347 348 350 352 355 357 3 12 43 11 293 183 267 290 307 232 213 208 200 191 224 194 230 243 220 211 277 58 354 121 186 218 201 231 191 181 213 191 186 207 218 204
334 335 339 342 341 340 342 347 351 352 355 30 352 357 350 290 295 261 211 235 246 219 208 180 203 177 191 213 239 41 21 283 13 21 75 11 206 200 232 199 235 245 240 209 203 213 142
341 339 336 335 338 338 341 343 346 346 360 11 354 335 281 284 271 244 229 229 251 250 255 247 232 252 238 239 257 278 267 280 278 300 343 48 192 185 226 204 219 249 232 197 202 196 172
341 341 339 338 340 340 336 337 333 341 334 311 259 290 263 266 254 241 283 317 285 279 266 227 244 224 225 13 286 258 243 252 255 238 228 210 99 265 210 162 218 236 248 211 207 203 208
334 336 336 335 336 333 330 331 325 328 313 288 240 204 243 265 272 275 273 276 291 298 250 250 258 245 164 290 296 270 206 223 232 223 206 216 203 220 208 211 274 241 195 179 188 218 201
334 334 332 329 327 324 323 318 316 317 309 279 259 231 222 271 259 274 289 283 287 251 273 232 172 319 201 204 208 229 210 205 185 140 208 203 212 228 172 215 219 217 208 221 201 249 189
331 331 330 331 326 322 321 315 315 310 295 277 256 234 218 262 261 269 263 317 298 328 268 297 344 196 194 196 212 219 230 228 199 188 155 162 182 209 214 220 224 197 208 149 186 236 173
331 330 333 334 333 337 337 334 326 305 288 255 256 242 224 264 265 264 262 261 277 265 280 4 289 191 182 199 213 207 229 222 208 171 166 166 165 184 202 209 233 173 147 180 203 121 175
334 332 330 328 327 329 329 330 337 327 295 261 253 271 249 232 267 277 269 259 254 257 287 271 301 308 10 254 198 289 249 224 226 204 186 196 201 181 200 199 264 195 180 210 187 165 181